Location: Cerda�ola
(41.4919°N, 2.1403°E)
Time: 18:35:39
(UTC+00:00)

Lacrosse 4 Rocket - Pass Details

Date: 14 August 2020
Orbit: 544 x 615 km, 68.0° (Epoch: 30 September)

Event Time Altitude Azimuth Distance (km) Brightness Sun altitude
Exits shadow 23:09:49 18° 324° (NW) 1,414 4.0 -33.5°
Drops below altitude 10° 23:12:07 10° 357° (N) 1,869 4.8 -33.6°
Sets 23:14:50 0° 15° (NNE) 2,756 5.7 -33.7°
